Lid_Strength_Index
3 5 4 5 9 9 12 10 7 8 8 6 5 6 8 7 9 12 2 0 -0 -0 -1 -1 -2 -2 -2 -2 -2 -2 -2 -2 -2 -2 -2 -2 -2 -2 -2 -2 -2 -2 -2 -2 -2 -2 -2 -2 -2
4 5 5 6 11 13 12 8 9 8 6 5 5 6 7 9 5 4 3 0 -0 -0 -1 -1 -1 -2 -2 -2 -2 -2 -2 -2 -2 -2 -2 -2 -2 -2 -2 -3 -2 -2 -2 -2 -2 -2 -2 -2 -2
5 5 7 9 10 12 12 8 8 6 6 6 7 5 6 7 4 3 1 0 -0 -0 -1 -1 -1 -2 -2 -2 -3 -3 -2 -2 -2 -2 -2 -2 -2 -2 -2 -3 -3 -3 -2 -2 -2 -2 -2 -2 -2
7 6 7 12 12 9 8 8 6 7 7 5 6 8 5 3 3 2 0 0 0 -0 -1 -1 -1 -2 -2 -2 -2 -2 -2 -2 -2 -2 -2 -2 -2 -2 -3 -3 -3 -2 -2 -2 -2 -2 -2 -2 -2
6 7 10 12 12 9 8 6 6 7 6 6 7 9 7 3 1 1 1 0 1 0 -0 -1 -1 -2 -2 -2 -2 -2 -2 -2 -2 -2 -2 -2 -2 -2 -3 -3 -2 -2 -2 -2 -2 -2 -2 -2 -2
7 8 12 13 12 9 8 6 6 7 6 6 7 7 7 2 2 1 1 1 0 0 -0 -1 -0 -1 -2 -2 -2 -2 -2 -2 -2 -2 -2 -2 -3 -3 -3 -2 -2 -2 -2 -2 -2 -2 -2 -2 -2
8 10 12 10 12 10 7 6 7 7 6 7 5 8 6 4 2 1 1 1 0 -0 -0 -0 -1 -0 -0 -1 -2 -2 -2 -2 -2 -2 -2 -2 -2 -2 -2 -3 -2 -2 -2 -2 -2 -2 -2 -2 -2
7 8 11 11 12 12 7 6 6 6 7 5 4 8 9 4 2 1 1 1 1 0 0 0 -0 -0 -0 -0 -0 -1 -1 -2 -2 -2 -2 -1 -1 -2 -2 -2 -2 -2 -2 -2 -2 -2 -2 -2 -2
6 11 12 11 11 11 7 7 6 6 6 6 5 5 4 2 1 2 2 2 2 1 1 0 0 -0 -0 -1 0 0 -0 -1 -1 -1 -1 -0 -0 -1 -1 -1 -2 -2 -2 -2 -2 -2 -2 -2 -2
7 11 11 7 9 11 8 7 6 7 7 7 6 4 3 2 3 3 3 3 2 2 1 0 1 0 -0 -0 -0 -0 -1 -1 -1 -1 0 -0 0 0 -1 1 -1 -1 -2 -2 -2 -2 -1 -0 0
8 11 9 8 9 10 9 8 6 8 8 6 6 6 4 3 3 3 3 3 2 2 1 1 1 0 0 0 -0 0 0 0 -0 -0 -0 -0 0 0 0 0 0 0 1 0 -0 0 0 0 0
9 7 7 7 9 10 10 9 7 7 8 7 5 4 4 4 4 4 3 3 2 2 2 1 1 0 0 -0 -0 -0 0 0 1 0 -0 0 0 0 1 1 1 1 0 1 1 1 1 1 0
9 8 7 10 10 10 10 11 11 8 6 6 4 4 4 4 4 3 2 2 2 2 1 1 1 1 0 0 -0 -0 1 0 0 0 -0 -0 0 1 1 1 1 1 1 1 1 2 1 1 1
7 8 8 10 11 11 11 11 12 10 9 6 4 5 4 4 4 3 3 2 2 2 1 1 1 1 0 0 0 -0 0 1 0 0 0 0 0 1 1 1 1 1 1 2 2 2 1 1 1
8 9 9 11 9 10 10 11 12 10 10 8 6 5 4 4 3 3 3 2 2 2 1 1 1 1 1 1 0 1 0 0 1 0 -0 0 0 0 1 1 1 1 1 1 1 1 1 1 1
11 11 13 9 10 10 11 13 8 9 10 10 9 6 5 4 3 3 2 2 2 2 2 1 0 1 1 1 0 0 1 0 0 1 0 -0 -0 0 1 0 0 -0 1 1 1 1 2 2 2
11 14 13 11 9 11 12 12 8 7 9 10 10 9 6 5 4 3 3 2 2 2 2 2 1 1 1 1 1 0 0 1 0 -0 0 0 -0 -0 0 0 -0 -0 1 0 1 1 1 2 2
15 14 12 12 10 10 13 12 9 9 11 10 9 9 8 6 4 3 3 2 2 2 1 1 1 1 1 1 1 1 1 0 0 0 -0 0 -0 -0 0 -0 0 1 1 1 1 1 1 1 1
11 12 13 10 10 11 12 11 10 9 9 11 10 9 9 7 5 3 3 3 2 2 2 1 1 1 1 1 2 2 1 1 1 1 0 0 0 0 0 0 1 1 1 1 0 1 1 1 1
11 13 13 10 12 13 12 12 10 10 10 9 9 9 9 9 7 5 3 3 2 2 2 2 1 1 1 1 1 1 1 1 1 1 0 0 0 0 0 0 1 0 0 0 0 1 2 2 2
11 12 13 13 12 12 14 14 12 10 9 9 9 10 9 10 9 7 4 3 3 3 2 2 1 1 1 1 1 1 1 1 2 1 1 1 0 0 0 0 1 1 0 1 1 1 2 2 2
13 10 10 11 14 17 13 18 13 11 9 8 9 10 10 11 10 9 5 4 3 2 2 2 1 1 1 1 1 2 2 3 1 1 1 0 1 0 0 0 0 0 0 1 1 2 2 3 3
11 10 11 12 13 14 14 17 14 12 12 10 8 8 10 10 10 10 7 4 2 2 2 2 1 1 1 1 1 1 2 1 1 1 1 1 1 1 0 0 0 0 0 1 1 2 2 3 3
9 11 11 13 14 18 15 16 16 13 12 10 9 7 7 8 9 9 9 6 3 3 3 2 2 2 1 1 1 1 2 2 2 2 2 1 1 1 1 0 0 0 0 1 0 1 2 2 2
9 12 18 19 19 20 17 17 15 12 11 10 10 10 10 9 7 7 9 9 7 5 3 3 3 3 2 2 1 1 1 2 2 2 1 2 1 1 1 1 1 1 1 1 1 0 1 2 2
11 12 17 22 21 20 18 19 16 10 10 10 11 12 11 11 10 11 9 8 8 7 5 4 4 3 3 2 2 2 1 1 1 1 1 1 1 1 1 1 1 1 2 2 2 1 1 1 2
12 13 11 17 22 20 18 15 12 10 11 10 10 11 11 11 9 10 10 9 9 9 9 7 6 6 4 3 3 2 2 2 2 2 2 2 2 2 2 2 2 2 2 2 2 3 3 3 4
10 9 14 14 22 22 18 17 16 14 11 11 11 11 12 11 11 11 10 10 9 10 10 9 9 9 7 6 3 2 2 2 1 2 1 1 1 1 2 2 3 3 4 3 3 4 5 5 6
14 12 12 13 15 20 20 17 13 12 11 12 12 11 11 12 11 10 10 9 9 8 9 9 9 9 8 8 6 4 4 3 2 2 2 2 2 2 3 3 4 4 5 6 6 6 7 7 8
12 11 12 15 17 16 17 17 12 12 12 12 12 11 12 11 10 10 10 9 9 8 7 7 7 8 8 7 7 7 6 5 4 3 2 2 3 4 4 5 6 6 7 8 8 9 8 8 9